Terminal Aerodrome Forecast
Issued by NWS

Home | Current Version | Previous Version | Text Only | Print | Product List | Glossary On
Versions: 1 2 3 4 5 6 7 8 9 10 11 12 13 14 15 16 17 18 19 20 21 22 23 24 25 26 27 28
000
FTUS43 KGRR 110540
TAFMKG
TAF
KMKG 110540Z 1106/1206 34010KT P6SM -SHSN OVC035
     FM111300 16012KT 4SM -SN OVC018
     FM111400 18012KT 1 1/2SM -SN BR OVC008
     FM111600 18012KT P6SM VCSH OVC012
     FM112000 20008KT 3/4SM -SN BR OVC005
     FM120300 32015G26KT 4SM -SHSN OVC015=

USA.gov is the U.S. government's official web portal to all federal, state and local government web resources and services.